BEIDOU-3 IGSO-2 (C39)

Last updated on Sat Aug 15 2026 00:03:26 GMT+0000 (Coordinated Universal Time)

1 44337U 19035A 26225.21780633 -.00000172 00000+0 00000+0 0 9995 2 44337 55.2511 158.3620 0038822 212.0886 148.9394 1.00282922 26245
UTC large
Height (km)
Speed (km/s)
/
Latitude / Longitude
Inclination (degrees)
Orbital Period (minutes)
Azimuth
Elevation
Range (km)
Doppler Factor

Next 0 passes for location: London (51.5072 / 0.1276)

No passes found over London.
BEIDOU-3 IGSO-2 (C39)